Location: Hope
(40.9110°N, 74.9680°W)
Time: 12:57:10
(UTC-04:00)

VELOX 1 - Pass Details

Date: 07 August 2021
Orbit: 626 x 643 km, 98.3° (Epoch: 28 September)

Event Time Altitude Azimuth Distance (km) Brightness Sun altitude
Exits shadow 04:57:12 - 190° (S) 2,346 ? -11.6°
Reaches altitude 10° 04:58:03 10° 194° (SSW) 2,025 ? -11.5°
Maximum altitude 05:02:09 37° 262° (W) 1,000 ? -10.9°
Drops below altitude 10° 05:06:17 10° 330° (NNW) 2,046 ? -10.2°
Sets 05:08:39 0° 339° (NNW) 2,961 ? -9.8°
